Location: Bottenau
(48.5138°N, 8.0462°E)
Time: 19:50:39
(UTC+00:00)

NOSS 3-4 (C) - Pass Details

Date: 18 April 2021
Orbit: 873 x 1339 km, 63.4° (Epoch: 06 May)

Event Time Altitude Azimuth Distance (km) Brightness Sun altitude
Rises 19:47:35 0° 239° (WSW) 3,468 6.7 -13.3°
Reaches altitude 10° 19:50:05 10° 244° (WSW) 2,554 6.1 -13.6°
Maximum altitude 19:55:49 52° 321° (NW) 1,147 4.3 -14.4°
Drops below altitude 10° 20:02:06 10° 37° (NE) 2,781 5.9 -15.2°
Sets 20:04:55 0° 43° (NE) 3,805 6.5 -15.6°
